This is the latest recevied weather packets stored in our database for station/object DH8TOM-2. If no packets are shown the sender has not sent any weather packets the latest 1 day(s).
| Time | Temp. | Humidity | Pressure | Rain* | Wind** | Luminosity | Snow |
|---|---|---|---|---|---|---|---|
| 1777992180 | 15.56° C | 88% | 1005.2 hPa | 0.25 mm | 0.45 m/s, 2° | - | - |
| 1777991879 | 15.56° C | 88% | 1005.2 hPa | 0.25 mm | 0.45 m/s, 2° | - | - |
| 1777991578 | 15° C | 89% | 1005.2 hPa | 0.25 mm | 0.45 m/s, 16° | - | - |
| 1777991277 | 15° C | 89% | 1005.2 hPa | 0.25 mm | 0.45 m/s, 16° | - | - |
| 1777990977 | 15° C | 89% | 1005.4 hPa | 0.51 mm | 0.45 m/s, 16° | - | - |
| 1777990676 | 15° C | 89% | 1005.4 hPa | 0.51 mm | 0.45 m/s, 16° | - | - |
| 1777990374 | 14.44° C | 88% | 1005.5 hPa | 0.25 mm | 0.45 m/s, 345° | - | - |
| 1777990073 | 14.44° C | 88% | 1005.5 hPa | 0.25 mm | 0.45 m/s, 345° | - | - |
| 1777989772 | 15° C | 87% | 1005.7 hPa | 0.25 mm | 0.89 m/s, 301° | - | - |
| 1777989471 | 15° C | 87% | 1005.7 hPa | 0.25 mm | 0.89 m/s, 301° | - | - |
| 1777989170 | 15° C | 88% | 1005.8 hPa | 0.25 mm | 0.89 m/s, 308° | - | - |
| 1777988869 | 15° C | 88% | 1005.8 hPa | 0.25 mm | 0.89 m/s, 308° | - | - |
| 1777988568 | 15.56° C | 87% | 1005.9 hPa | 0.51 mm | 0.45 m/s, 270° | - | - |
| 1777988266 | 15.56° C | 87% | 1005.9 hPa | 0.51 mm | 0.45 m/s, 270° | - | - |
| 1777987966 | 15.56° C | 86% | 1006 hPa | 0.51 mm | 0.45 m/s, 270° | - | - |
| 1777987664 | 15.56° C | 86% | 1006 hPa | 0.51 mm | 0.45 m/s, 270° | - | - |
| 1777987363 | 15.56° C | 86% | 1006.2 hPa | 0.76 mm | 0.45 m/s, 315° | - | - |
| 1777987063 | 15.56° C | 86% | 1006.2 hPa | 0.76 mm | 0.45 m/s, 315° | - | - |
| 1777986762 | 15.56° C | 85% | 1006.4 hPa | 1.02 mm | 0.45 m/s, 288° | - | - |
| 1777986460 | 15.56° C | 85% | 1006.4 hPa | 1.02 mm | 0.45 m/s, 288° | - | - |
| 1777986159 | 15.56° C | 86% | 1006.4 hPa | 1.78 mm | 0.45 m/s, 270° | - | - |
| 1777985859 | 15.56° C | 86% | 1006.4 hPa | 1.78 mm | 0.45 m/s, 270° | - | - |
| 1777985558 | 15.56° C | 85% | 1006.4 hPa | 2.54 mm | 0.45 m/s, 270° | - | - |
| 1777985256 | 15.56° C | 85% | 1006.4 hPa | 2.54 mm | 0.45 m/s, 270° | - | - |
| 1777984955 | 15.56° C | 85% | 1006.3 hPa | 2.54 mm | 0.45 m/s, 270° | - | - |
* Rain latest hour (hover to see other rain measurements)
** Current wind speed in m/s (hover to see current wind gust speed)